Regional Weather Roundup
Issued by NWS Jackson, KY

Home | Current Version | Previous Version | Graphics & Text | Print | Product List | Glossary On
Versions: 1 2 3 4 5 6 7 8 9 10 11 12 13 14 15 16 17 18 19 20 21 22 23 24 25 26 27
000
ASUS43 KJKL 101810
RWRJKL

EAST KENTUCKY HOURLY WEATHER ROUNDUP
NATIONAL WEATHER SERVICE JACKSON KY
100 PM EST SAT DEC 10 2016

NOTE: "FAIR" INDICATES FEW OR NO CLOUDS BELOW 12,000 FEET WITH
NO SIGNIFICANT WEATHER AND/OR OBSTRUCTIONS TO VISIBILITY.

* THESE REPORTS ARE NOT UNDER NWS QUALITY CONTROL AND MAY NOT
  REPORT WEATHER SUCH AS PRECIPITATION AND FOG.

KYZ079-080-083-085-087-088-110-112-115-119-120-101900
...EASTERN KENTUCKY...

CITY           SKY/WX    TMP DP  RH WIND       PRES   REMARKS
JACKSON        SUNNY     28  15  58 SW5       30.50F WCI  23
6HR MIN TEMP:  18; 6HR MAX TEMP:  29;

LONDON         SUNNY     28  15  58 CALM      30.52F
6HR MIN TEMP:  13; 6HR MAX TEMP:  28;

SOMERSET*      SUNNY     28  18  64 CALM      30.57F
MONTICELLO*    MOSUNNY   31  20  63 VRB3      30.56F
6HR MIN TEMP:  11; 6HR MAX TEMP:  34;

MIDDLESBORO*   SUNNY     33  17  51 CALM      30.51F
6HR MIN TEMP:  14; 6HR MAX TEMP:  34;

HARLAN APT*    CLEAR     32  14  47 CALM      30.48F
PIKE CO APT*     N/A     27  15  60 W5        30.49F WCI  21
BIG SANDY APT* PTCLDY    27  15  60 W5        30.51F WCI  22
6HR MIN TEMP:  21; 6HR MAX TEMP:  27;

MOREHEAD APT*  MOCLDY    30  14  51 VRB5      30.56F WCI  25
ASHLAND*       MOSUNNY   30  16  55 W8        30.53F WCI  23
$$

KYZ035-036-041-042-044-050-067-078-099-101900
...CENTRAL KENTUCKY...

CITY           SKY/WX    TMP DP  RH WIND       PRES   REMARKS
MT STERLING*   CLOUDY    30  18  59 NW3       30.55F
FLEMING/MASON* PTSUNNY   29  16  58 SW5       30.55S WCI  24
DANVILLE*      SUNNY     28  18  64 S3        30.54F
LEXINGTON      MOSUNNY   30  13  49 VRB6      30.53F WCI  24
6HR MIN TEMP:  16; 6HR MAX TEMP:  30;

FRANKFORT      SUNNY     31  15  52 W3        30.53F
6HR MIN TEMP:  14; 6HR MAX TEMP:  31; 6HR PCP: TRACE;

LOUISVILLE     PTSUNNY   32  14  47 SW7       30.56F WCI  26
6HR MIN TEMP:  20; 6HR MAX TEMP:  32;

LEBANON*         N/A     28  16  59 CALM      30.55F
GLASGOW*       MOSUNNY   32  18  55 CALM      30.56F
BOWLING GREEN  SUNNY     33  15  47 CALM      30.57F
6HR MIN TEMP:  16; 6HR MAX TEMP:  33;

$$

KYZ091>093-OHZ055-061-077-WVZ005-015-034-035-042-101900
...SOUTHERN OHIO/WEST VIRGINIA...

CITY           SKY/WX    TMP DP  RH WIND       PRES   REMARKS
COVINGTON      CLOUDY    28  16  60 W8        30.52F WCI  20
COLUMBUS       CLOUDY    26  18  71 W10       30.50F WCI  16
DAYTON         CLOUDY    25  15  66 W10       30.49F WCI  15
WILMINGTON     CLOUDY    26  15  63 W13       30.51S WCI  15
HUNTINGTON     PTSUNNY   31  14  49 SE7       30.53F WCI  24
CHARLESTON     PTSUNNY   28  12  51 SW8       30.52F WCI  20
PINEVILLE*     SUNNY     29  11  46 MISG      30.51F
BECKLEY        MOSUNNY   26  10  50 NW7       30.39F WCI  18
BLUEFIELD      SUNNY     24  10  55 W8        30.38F WCI  15
LOGAN CO APT*  MOCLDY    27  16  63 CALM      30.47F
$$

VAZ002-007-008-TNZ017-027-036-066-071-101900
...SOUTHWEST VIRGINIA/EAST TENNESSEE...

CITY           SKY/WX    TMP DP  RH WIND       PRES   REMARKS
WISE*          SUNNY     32  12  43 NW3       30.41F
ABINGDON*      SUNNY     32  15  49 W7        30.44F WCI  26
BRISTOL        MOSUNNY   33  16  49 CALM      30.48F
MORRISTOWN*    CLEAR     34  14  44 VRB3      30.49F
SEVIERVILLE*   CLEAR     36  18  48 CALM      30.51F
KNOXVILLE      MOSUNNY   36  13  38 CALM      30.52F
OAK RIDGE      SUNNY     36  14  40 VRB5      30.54F WCI  32
CROSSVILLE     SUNNY     32  15  49 VRB5      30.47F WCI  27
NASHVILLE      MOSUNNY   36  15  42 NE5       30.55F WCI  32
$$

...KEY TO REMARKS...
VSB - VISIBILITY IN MILES
WCI - WIND CHILL INDEX
HX  - HEAT INDEX

$$




USA.gov is the U.S. government's official web portal to all federal, state and local government web resources and services.